TimeEDT,TemperatureF,Dew PointF,Humidity,Sea Level PressureIn,VisibilityMPH,Wind Direction,Wind SpeedMPH,Gust SpeedMPH,PrecipitationIn,Events,Conditions,WindDirDegrees,DateUTC
12:53 AM,79.0,73.9,84,29.91,10.0,Calm,Calm,-,N/A,,Partly Cloudy,0,2013-10-20 04:53:00
1:53 AM,78.1,73.0,84,29.91,10.0,Calm,Calm,-,N/A,,Scattered Clouds,0,2013-10-20 05:53:00
2:53 AM,78.1,73.9,87,29.91,10.0,Calm,Calm,-,N/A,,Mostly Cloudy,0,2013-10-20 06:53:00
3:53 AM,77.0,73.9,90,29.89,10.0,Calm,Calm,-,0.00,Rain,Light Rain,0,2013-10-20 07:53:00
4:53 AM,77.0,73.9,90,29.89,10.0,Calm,Calm,-,0.00,,Scattered Clouds,0,2013-10-20 08:53:00
5:53 AM,78.1,73.9,87,29.91,10.0,Calm,Calm,-,N/A,,Mostly Cloudy,0,2013-10-20 09:53:00
6:53 AM,77.0,73.9,90,29.92,10.0,Calm,Calm,-,N/A,,Mostly Cloudy,0,2013-10-20 10:53:00
7:53 AM,77.0,73.9,90,29.93,10.0,Calm,Calm,-,N/A,,Scattered Clouds,0,2013-10-20 11:53:00
8:53 AM,79.0,73.9,84,29.94,10.0,Calm,Calm,-,N/A,,Scattered Clouds,0,2013-10-20 12:53:00
9:53 AM,81.0,73.0,77,29.96,10.0,Calm,Calm,-,N/A,,Mostly Cloudy,0,2013-10-20 13:53:00
10:53 AM,82.9,72.0,69,29.96,10.0,Calm,Calm,-,N/A,,Overcast,0,2013-10-20 14:53:00
11:53 AM,82.9,72.0,69,29.97,10.0,Calm,Calm,-,N/A,,Mostly Cloudy,0,2013-10-20 15:53:00
12:03 PM,82.4,71.6,70,29.97,10.0,NNW,4.6,-,N/A,,Overcast,330,2013-10-20 16:03:00
12:15 PM,82.4,71.6,70,29.96,10.0,Calm,Calm,-,N/A,,Mostly Cloudy,0,2013-10-20 16:15:00
12:53 PM,82.9,73.0,72,29.96,10.0,SW,5.8,-,N/A,,Mostly Cloudy,230,2013-10-20 16:53:00
1:53 PM,86.0,71.1,61,29.93,10.0,WSW,6.9,-,N/A,,Scattered Clouds,240,2013-10-20 17:53:00
2:53 PM,84.9,70.0,61,29.91,10.0,SW,6.9,-,N/A,,Scattered Clouds,220,2013-10-20 18:53:00
3:53 PM,86.0,72.0,63,29.90,10.0,SW,6.9,-,N/A,,Partly Cloudy,220,2013-10-20 19:53:00
4:53 PM,84.9,71.1,63,29.91,10.0,West,9.2,-,N/A,,Scattered Clouds,260,2013-10-20 20:53:00
5:53 PM,84.0,70.0,63,29.91,10.0,West,8.1,-,N/A,,Partly Cloudy,270,2013-10-20 21:53:00
6:53 PM,82.0,70.0,67,29.92,10.0,WNW,6.9,-,N/A,,Scattered Clouds,290,2013-10-20 22:53:00
7:53 PM,80.1,69.1,69,29.94,10.0,NW,5.8,-,N/A,,Scattered Clouds,320,2013-10-20 23:53:00
8:50 PM,64.4,60.8,88,29.90,10.0,WNW,12.7,-,N/A,,Partly Cloudy,290,2013-10-21 00:50:00
8:53 PM,78.1,69.1,74,29.96,10.0,NW,3.5,-,N/A,,Scattered Clouds,320,2013-10-21 00:53:00
9:53 PM,78.1,70.0,76,29.97,10.0,Calm,Calm,-,N/A,,Mostly Cloudy,0,2013-10-21 01:53:00
10:53 PM,80.1,70.0,71,29.98,10.0,NE,6.9,-,N/A,,Mostly Cloudy,40,2013-10-21 02:53:00
11:18 PM,80.6,71.6,74,29.98,10.0,ENE,6.9,-,N/A,,Overcast,70,2013-10-21 03:18:00
11:53 PM,79.0,72.0,79,29.98,10.0,ENE,4.6,-,N/A,,Overcast,70,2013-10-21 03:53:00